Flag for Germany Weather past 2 weeks in Eckernförde, Schleswig-Holstein, Germany

Now
57 °F

Fog.


Feels Like: 57 °F
Forecast: 54 / 62 °F
Wind: 2 mph from Northeast

Location: Schleswig

Current Time: Sep 20, 2014 at 4:17:36 AM

Latest Report: Sep 20, 2014 at 4:00 AM


Visibility: 0 mi

Pressure: 29.94 "Hg

Humidity: 99%

Dew point: 57 °F

Location of EckernfördeLocation

Historic Weather in Eckernförde — Graph

°F

Eckernförde temperature yesterday

Maximum temperature yesterday: 71 °F (at 1:00 PM)
Minimum temperature yesterday: 58 °F (at 5:00 AM)
Average temperature yesterday: 63 °F

Past Weeks' High & Low Weather Summary

 TemperatureHumidityPressure
High75 °F (Sep 6, 2:00 PM)99% (Sep 7, 1:00 AM)30.30 "Hg (Sep 7, 1:00 AM)
Low51 °F (Sep 9, 4:00 AM)54% (Sep 17, 3:00 PM)29.88 "Hg (Sep 6, 4:00 PM)
Average62 °F84%30.06 "Hg
* Reported Sep 5 3:00 AM — Sep 20 3:00 AM, Eckernförde, Weather by CustomWeather, © 2014

Note: Actual official high and low records may vary slightly from our data, if they occured in-between our weather recording intervals... More about our weather records

Advertising

Eckernförde weather history for previous 24 hours

 ConditionsComfort  
Time TempWeatherWind HumidityBarometerVisibility
3:00 AM
Sep 20
58 °FFog.2 mph98%29.94 "Hg1 mi
2:00 AM58 °FFog.2 mph98%29.94 "Hg1 mi
1:00 AM58 °FFog.3 mph96%29.94 "Hg1 mi
12:00 AM58 °FFog.3 mph96%29.96 "Hg1 mi
10:00 PM
Sep 19
58 °FFog.2 mph93%29.96 "Hg2 mi
9:00 PM60 °FFog.3 mph89%29.95 "Hg3 mi
8:00 PM62 °FFog.2 mph81%29.94 "Hg4 mi
7:00 PM65 °FSunny.3 mph71%29.93 "Hg9 mi
6:00 PM68 °FSunny.5 mph64%29.93 "Hg12 mi
4:00 PM70 °FPassing clouds.5 mph57%29.93 "Hg16 mi
3:00 PM71 °FPassing clouds.5 mph59%29.93 "Hg16 mi
2:00 PM71 °FPassing clouds.5 mph60%29.93 "Hg16 mi
1:00 PM71 °FPassing clouds.5 mph63%29.94 "Hg19 mi
12:00 PM69 °FPassing clouds.5 mph69%29.94 "Hg16 mi
10:00 AM65 °FFog.3 mph85%29.95 "Hg4 mi
9:00 AM60 °FFog.3 mph96%29.94 "Hg2 mi
8:00 AM58 °FFog.2 mph99%29.94 "Hg1 mi
7:00 AM58 °FFog.3 mph98%29.92 "Hg1 mi
6:00 AM58 °FFog.3 mph98%29.93 "Hg1 mi
5:00 AM58 °FFog.2 mph97%29.93 "Hg2 mi
4:00 AM58 °FFog.2 mph98%29.94 "Hg2 mi
Weather by CustomWeather, © 2014

See weather overviewHow to use our weather pages